Regional Weather Roundup
Issued by NWS

Home | Current Version | Previous Version | Text Only | Print | Product List | Glossary On
Versions: 1 2 3 4 5 6 7 8 9 10 11 12 13 14 15 16 17 18 19 20 21 22 23 24 25 26 27 28 29 30 31 32 33 34 35 36 37 38 39 40 41 42 43 44 45 46 47 48 49 50
000
ASUS43 KLMK 080910
RWRKY
KENTUCKY REGIONAL WEATHER ROUNDUP
NATIONAL WEATHER SERVICE LOUISVILLE KY
400 AM EST MON FEB 08 2016

NOTE "FAIR" INDICATES FEW OR NO CLOUDS BELOW 12,000 FEET
WITH NO SIGNIFICANT WEATHER AND/OR OBSTRUCTIONS TO VISIBILITY.

KYZ001>023-026-027-061>063-070>075-081000-
WESTERN AND SOUTH CENTRAL KENTUCKY

CITY           SKY/WX    TMP DP  RH WIND       PRES   REMARKS
PADUCAH        CLOUDY    42  27  55 W10       29.80F
HENDERSON      CLOUDY    34  28  80 S3        29.77F
OWENSBORO      PTCLDY    35  34  96 S6        29.78F WCI  30
HOPKINSVILLE   PTCLDY    41  30  65 SW5       29.79F
BOWLING GREEN  CLOUDY    41  36  82 E3        29.80F
GLASGOW        LGT RAIN  40  36  86 W7        29.80S
$$

KYZ024-025-028>034-038-045-046-053-081000-
NORTH CENTRAL KENTUCKY

CITY           SKY/WX    TMP DP  RH WIND       PRES   REMARKS
LOUISVILLE/SDF LGT RAIN  40  35  83 W18       29.76S WCI  31
LOUISVILLE/LOU LGT RAIN  40  35  83 W9        29.76S WCI  34
FORT KNOX      RAIN      37  36  93 W16       29.75S WCI  28
$$

KYZ035>037-039>044-047>052-055>060-089>105-081000-
NORTHEAST KENTUCKY

CITY           SKY/WX    TMP DP  RH WIND       PRES   REMARKS
LEXINGTON      LGT RAIN  39  34  82 W9        29.73R WCI  33
COVINGTON      LGT RAIN  39  34  82 W12       29.70F WCI  32
FRANKFORT      LGT RAIN  38  34  85 W5        29.73S WCI  34
$$

KYZ054-064>069-076>088-106>120-081000-
SOUTHEAST KENTUCKY

CITY           SKY/WX    TMP DP  RH WIND       PRES   REMARKS
JACKSON        CLOUDY    41  21  44 SW5       29.72F
LONDON         CLOUDY    43  20  39 SW7       29.74F
SOMERSET       CLOUDY    39  25  56 CALM      29.77F
MIDDLESBORO    MOCLDY    28  26  92 CALM      29.80F
MONTICELLO     CLOUDY    44  26  49 W15       29.77F
$$




USA.gov is the U.S. government's official web portal to all federal, state and local government web resources and services.